Flag for U.S.A. Weather past 2 weeks in Woodstock, New York, U.S.A.

Now
25 °F

Sunny.


Feels Like: 13 °F
Forecast: 6 / 19 °F
Wind: 15 mph from Northwest

Location: Dutchess County Airport

Current Time: Jan 31, 2015 at 4:17:00 PM

Latest Report: Jan 31, 2015 at 3:53 PM


Visibility: 10 mi

Pressure: 30.09 "Hg

Humidity: 28%

Dew point: -4 °F

Location of WoodstockLocation

Historic Weather in Woodstock — Graph

°F

Woodstock temperature yesterday

Maximum temperature yesterday: 37 °F (at 1:53 PM)
Minimum temperature yesterday: 18 °F (at 11:53 PM)
Average temperature yesterday: 29 °F

Past Weeks' High & Low Weather Summary

 TemperatureHumidityPressure
High41 °F (Jan 19, 10:53 AM)97% (Jan 18, 10:53 PM)30.42 "Hg (Jan 18, 10:53 PM)
Low-4 °F (Jan 29, 6:53 AM)25% (Jan 31, 2:53 PM)29.28 "Hg (Jan 24, 4:00 PM)
Average25 °F63%29.98 "Hg
* Reported Jan 16 2:53 PM — Jan 31 2:53 PM, Woodstock, Weather by CustomWeather, © 2014

Note: Actual official high and low records may vary slightly from our data, if they occured in-between our weather recording intervals... More about our weather records

Advertising

Woodstock weather history for previous 24 hours

 ConditionsComfort  
Time TempWeatherWind HumidityBarometerVisibility
2:53 PM
Jan 31
25 °FSunny.13 mph25%30.08 "Hg10 mi
1:53 PM24 °FSunny.18 mph30%30.08 "Hg10 mi
12:53 PM22 °FSunny.13 mph31%30.09 "Hg10 mi
11:53 AM19 °FSunny.13 mph32%30.12 "Hg10 mi
10:53 AM16 °FSunny.10 mph32%30.14 "Hg10 mi
9:53 AM12 °FSunny.12 mphN/A30.14 "Hg10 mi
8:53 AM10 °FSunny.13 mph37%30.13 "Hg10 mi
7:53 AM9 °FSunny.10 mph39%30.13 "Hg10 mi
6:53 AM10 °FClear.10 mphN/A30.11 "Hg10 mi
5:53 AM11 °FClear.14 mphN/A30.10 "Hg10 mi
4:53 AM12 °FClear.14 mphN/A30.08 "Hg10 mi
3:53 AM13 °FClear.18 mph36%30.06 "Hg10 mi
2:53 AM14 °FClear.12 mph42%30.06 "Hg10 mi
1:53 AM15 °FClear.17 mph44%30.05 "Hg10 mi
12:53 AM16 °FClear.16 mph47%30.03 "Hg10 mi
11:53 PM
Jan 30
18 °FClear.14 mph47%30.01 "Hg10 mi
10:53 PM19 °FClear.13 mph49%30.01 "Hg10 mi
9:53 PM19 °FClear.17 mph49%30.01 "Hg10 mi
8:53 PM21 °FClear.20 mph47%29.99 "Hg10 mi
7:53 PM23 °FClear.16 mph48%29.97 "Hg10 mi
6:53 PM26 °FClear.14 mph46%29.95 "Hg10 mi
5:53 PM29 °FClear.22 mph45%29.92 "Hg10 mi
4:53 PM32 °FPartly sunny.15 mph45%29.88 "Hg10 mi
Weather by CustomWeather, © 2014

See weather overviewHow to use our weather pages